CZ-3C DEB, 40862

Orbit data source: Space-Track

CZ-3C DEB, 40862 is space debris in HEO originally from a launch on Fri, 24 Feb 2012 UTC launched from the Xichang Space Center, China (XSC). Debris objects in space refer to the collection of defunct objects orbiting the Earth. Examples of debris include non-operational satellites, rocket bodies, and fragments generated from explosions, collisions, or faulty payload assembly.

Loading next visibility...
Identifier
40862, 2012-008AC
Orbit
HEO
Country
Flag of CNCN / PRC
Related business
Manufacturer
CALT
Mission
Spacecraft
Bus & Motor
Unknown
Mass
Unknown
Launch date (UTC)
2012-02-24 (14 years ago)
Launch vehicle
Unknown
Launch site
Xichang Space Center, China (XSC)
Object type
Payload
Rocket body
Debris
Shape & HBR
Unknown shape, 1.1 m
Radar Cross Section
Medium (>0.1 m² and <1 m²)

Expand to show TLE details & history
Last TLE update: 5 days ago

TLE from 5 days ago
0 CZ-3C DEB
1 40862U 12008AC  26231.71200548  .00000185  00000-0  84611-2 0  9998
2 40862  18.2824 121.3417 7295578  79.4849 348.2950  2.07980774   735
Epoch: 2026-08-19T17:05Z
TLE epoch observation values (Epoch: 2026-08-19T17:05:17.273Z)
Latitude
-0°
Longitude
-102.94218°
Altitude
4,305.181 km
Speed
7.697 km/s
True Right ascension
08h 05m 45s
True Declination
0° 00' 00"
Sunlit
Object was in daylight at epoch
Visualization orbit readout
Latitude
Unknown
Longitude
Unknown
Altitude
Unknown
Speed
Unknown
Apparent Right ascension
Unknown
Apparent Declination
Unknown
Sunlit
N/A
Visualization observer readout
Local Sidereal Time
23:03:53
Azimuth
Unknown
Elevation
Unknown
Doppler factor
Unknown
Orbital elements
Apogee altitude
38,468.604 km
Perigee altitude
634.321 km
Semi-major axis
25,929.6 km
Eccentricity
0.72956
Inclination
18.2824°
RAAN
121.3417°
Arg. of periapsis
79.4849°
True anomaly
280.07544°
Mean anomaly
348.295°
Eccentric anomaly
323.33355°
Mean motion
0.51982 °/min
Orbital period
692.55 mins
BSTAR
0.0084611
Loading maneuver chart data...
Computing Atmospheric mass density...
Loading historical data...
Loading historical data...
Loading historical data...
Loading historical data...
Loading historical data...
Loading historical data...
Loading historical data...

Documentation

Showing up to 5 results
|